Regional Weather Roundup
Issued by NWS

Home | Current Version | Previous Version | Text Only | Print | Product List | Glossary Off
Versions: 1 2 3 4 5 6 7 8 9 10 11 12 13 14 15 16 17 18 19 20 21 22 23 24 25 26 27 28 29 30 31 32 33 34 35 36 37 38 39 40 41 42 43 44 45 46 47 48 49 50

000
ASUS43 KFSD 220210
RWRSD

WEATHER ROUNDUP FOR SOUTH DAKOTA
NATIONAL WEATHER SERVICE SIOUX FALLS SD
900 PM CDT SUN MAY 21 2017

NOTE: "FAIR" INDICATES FEW OR NO CLOUDS BELOW 12,000 FEET WITH NO
SIGNIFICANT WEATHER AND/OR OBSTRUCTIONS TO VISIBILITY.


SDZ001>005-009-010-012>017-220300-
NORTHWEST AND NORTH CENTRAL SOUTH DAKOTA

CITY           SKY/WX    TMP DP  RH WIND       PRES   REMARKS
BUFFALO          N/A     51  47  86 SW13      29.99R
FAITH            N/A     54  42  64 NW9       29.99F
MOBRIDGE       MOCLDY    59  42  53 W10       29.92S
$$

SDZ012>016-024>037-041>051-057-063-072>074-220300-
SOUTHWEST AND SOUTH CENTRAL SOUTH DAKOTA

CITY           SKY/WX    TMP DP  RH WIND       PRES   REMARKS
RAPID CTY ARPT PTCLDY    50  44  80 W12       30.08F
PIERRE         PTCLDY    61  41  47 W14       29.95S
CUSTER         CLOUDY    45  34  65 NW8G18    30.15R
ELLSWORTH AFB  PTCLDY    50  47  90 W9        30.07F
PHILIP         PTCLDY    53  48  83 W10       30.02S
PINE RIDGE     PTCLDY    53  46  77 NW5       30.12R
SPEARFISH      FAIR      48  41  76 NW5       30.12R
WINNER         FAIR      60  46  59 W8        29.99S
$$

SDZ004>011-016>023-039-040-220300-
NORTHEAST SOUTH DAKOTA

CITY           SKY/WX    TMP DP  RH WIND       PRES   REMARKS
ABERDEEN       CLEAR     54  42  64 E6        29.93R
WATERTOWN      PTCLDY    49  42  77 SW3       29.94R
BROOKINGS      CLEAR     52  43  71 CALM      29.96S
SISSETON         N/A     50  43  77 NW6       29.92R
$$

SDZ017-020-022-023-036>040-048>070-220300-
SOUTHEAST SOUTH DAKOTA

CITY           SKY/WX    TMP DP  RH WIND       PRES   REMARKS
SIOUX FALLS    PTCLDY    54  45  71 S3        29.97F
HURON          CLEAR     56  45  66 E8        29.92S
CHAMBERLAIN    MOCLDY    63  42  45 SW7       29.96S
MITCHELL       CLEAR     60  41  49 SW8       29.95S
YANKTON        CLEAR     57  43  59 SE8       30.00F
$$

ABBREVIATIONS USED IN REMARKS
   TC - TEMPERATURE IN CELSIUS
  WCI - WIND CHILL INDEX
   HX - HEAT INDEX
  VSB - VISIBILITY





USA.gov is the U.S. government's official web portal to all federal, state and local government web resources and services.